Location: 433rd Scouts Home(Lloyd Manor Park, Etobicoke )
(43.6722°N, 79.5542°W)
Time: 00:34:47
(UTC-04:00)

Nauka - Pass Details

Date: 28 September 2021
Orbit: 417 x 423 km, 51.6° (Epoch: 19 October)

Event Time Altitude Azimuth Distance (km) Brightness Sun altitude
Rises 21:12:49 0° 303° (WNW) 2,366 ? -23.7°
Reaches altitude 10° 21:15:00 10° 311° (NW) 1,501 ? -24.1°
Enters shadow 21:17:00 28° 335° (NNW) 811 ? -24.4°
